Flugplatz Paderborn Lippstadt

Bericht für EDLP

vom 25.01. um 22:50 UTC

Wind 4 kt aus 60°

Sichtweite 1700 m

feuchter Dunst

aufgebrochene Bewölkung in 200 ft

Temperatur -2.0°C

Taupunkt -2.0°C

Luftfeuchtigkeit 100%

Luftdruck 1019 hPa

EDLP 252250Z 06004KT 1700 BR BKN002 M02/M02 Q1019

Prognose für EDLP

vom 25.01. um 00:00 UTC

Am 25.01. zwischen 00:00 UTC und 00:00 UTC

Wind 6 kt aus 140°

Sichtweite 2000 m

feuchter Dunst

bedeckt in 400 ft


Zwischen 00:00 UTC und 00:00 UTC zeitweise

Sichtweite 6000 m

aufgelockert bewölkt in 400 ft

aufgebrochene Bewölkung in 1500 ft


Zwischen 00:00 und 00:00 UTC übergehend zu

Wind 6 kt aus 140°

Sichtweite 10 km oder mehr

feuchter Dunst

aufgelockert bewölkt in 1500 ft

TAF AMD EDLP 252120Z 2521/2618 14006KT 2000 BR OVC004 TEMPO 2600/2606 6000 SCT004 BKN015 BECMG 2606/2609 9999 SCT015
Impressum